CZ-6A DEB

Satellite information

Favourite Embed

Satellite Type and Status

DEBRISIN ORBIT

Key statistics

Satellite CZ-6A DEB at a glance.

Uptime

969

Days in orbit

Revolutions

≈ 14.1

Per day

Orbit

SSO

Sun Synchronous Orbit

Inclination

98.8

Latest

Satellite identification and parameters

Extended collection of information and parameters for CZ-6A DEB.

Object identification

Identified? True

Debris? True

Object name: CZ-6A DEB

International designator: 2022-151AR

Object number (NORAD): 54298

Object ID (CCSDS): 54298

Country: PEOPLES REPUBLIC OF CHINA (PRC)

Current information (Y/N): Y

RCS size: SMALL

Orbital parameters

Period: 102.37 minutes

Inclination: 98.8026 deg

SMA: 7248.935 km

Apoapsis: 914.749 km

Periapsis: 826.851 km

RAAN: 179.4619 deg

Eccentricy: 0.0060628

Argument of periapsis: 250.7115 deg

Mean anomaly: 108.749 deg

Mean motion: 14.06667496 rev/day

Mean motion (dot): 0.00000021 rev/day2

B* drag term: 0.000038034 1/REarth

Two-line elements (TLE)

Creation date: July 6, 2025, 10:36 p.m.

Reference frame: TEME

Reference center: EARTH

Epoch: July 6, 2025, 8:57 p.m. UTC

TLE line 0: 0 CZ-6A DEB

TLE line 1: 1 54298U 22151AR 25187.87348801 .00000021 00000-0 38034-4 0 9996

TLE line 2: 2 54298 98.8026 179.4619 0060628 250.7115 108.7490 14.06667496135482

Live tracking on map

Real-time ground track for satellite CZ-6A DEB.

In-orbit conjunctions

A list of the most updated potential collisions computed for object CZ-6A DEB.

Target Orbit TCA Probability of collision Miss distance Type
THORAD AGENA D DEB SSO 2024-11-10 02:01:35 0.0001882322 793.0 (m) DEBRIS
METEOR 2-11 DEB LEO 2024-11-07 22:42:37 0.0002291175 476.0 (m) DEBRIS
THORAD AGENA D DEB SSO 2024-07-28 11:19:40 0.002106109 9.0 (m) DEBRIS

Associated space launch

Chinese satellite reported for atmospheric/ocean/environmental/spatial parameter research purposes, details TBD.

CZ-6A DEB was lifted into orbit during the mission ‘Long March 6A | Yunhai 3’, on board a Long March 6A space rocket.

The launch took place on Nov. 11, 2022, 10:52 p.m. from Launch Complex 9A.

For more information about the launch, click the button.

Launch to space Long March 6A | Yunhai 3
Long March 6A | Yunhai 3

Agency: N/A

Status: Launch Successful

Launch date: Nov. 11, 2022, 10:52 p.m. UTC

Rocket: Long March 6A

Launch pad: Launch Complex 9A

Location: Taiyuan Satellite Launch Center, People's Republic of China

...

Latest news about this satellite

There are no fresh news available about this satellite. Check back as we update our databases every day.


Newsletter sign-up

Weekly statistics, charts and insights to help you stay on top of the space industry.